Location: Monfort
(47.1967°N, 0.2115°W)
Time: 03:52:58
(UTC+00:00)

USA 281 - Pass Details

Date: 24 October 2020
Orbit: 1078 x 1081 km, 106.0° (Epoch: 28 November)

Event Time Altitude Azimuth Distance (km) Brightness Sun altitude
Rises 17:24:07 0° 160° (SSE) 3,862 6.0 -5.4°
Reaches altitude 10° 17:26:38 10° 162° (SSE) 2,910 5.4 -5.8°
Maximum altitude 17:33:10 71° 246° (WSW) 1,136 3.6 -6.9°
Drops below altitude 10° 17:39:44 10° 331° (NNW) 2,929 5.8 -8.0°
Sets 17:42:17 0° 334° (NNW) 3,889 6.4 -8.4°
